Location: Unspecified
(50.0830°N, 0.0000°E)
Time: 04:53:59
(UTC+00:00)

Envisat - Pass Details

Date: 29 November 2019
Orbit: 764 x 766 km, 98.1° (Epoch: 12 December)

Event Time Altitude Azimuth Distance (km) Brightness Sun altitude
Rises 17:45:16 0° 164° (SSE) 3,221 6.2 -15.9°
Reaches altitude 10° 17:47:34 10° 164° (SSE) 2,298 5.5 -16.2°
Maximum altitude 17:52:39 90° 67° (ENE) 773 3.0 -17.0°
Drops below altitude 10° 17:57:46 10° 346° (NNW) 2,314 5.5 -17.8°
Sets 18:00:05 0° 346° (NNW) 3,245 6.3 -18.2°
